Flag for Cameroon Weather past 2 weeks in Yaoundé, Cameroon

Now
75 °F

Thunderstorms. Passing clouds.


Feels Like: 75 °F
Forecast: 67 / 82 °F
Wind: 1 mph from West

Location: Yaounde Airport

Current Time: Mar 29, 2015 at 7:22:00 PM

Latest Report: Mar 29, 2015 at 7:00 PM


Visibility: 5 mi

Pressure: 29.95 "Hg

Humidity: 89%

Dew point: 72 °F

Location of YaoundéLocation

Historic Weather in Yaoundé — Graph

°F

Yaoundé temperature yesterday

Maximum temperature yesterday: 84 °F (at 2:00 PM)
Minimum temperature yesterday: 70 °F (at 1:00 AM)
Average temperature yesterday: 75 °F

Past Weeks' High & Low Weather Summary

 TemperatureHumidityPressure
High93 °F (Mar 20, 3:00 PM)100% (Mar 15, 5:00 AM)30.09 "Hg (Mar 15, 5:00 AM)
Low68 °F (Mar 15, 4:00 AM)41% (Mar 15, 2:00 PM)29.80 "Hg (Mar 15, 3:00 PM)
Average77 °F81%29.95 "Hg
* Reported Mar 14 6:00 PM — Mar 29 6:00 PM, Yaoundé, Weather by CustomWeather, © 2015

Note: Actual official high and low records may vary slightly from our data, if they occured in-between our weather recording intervals... More about our weather records

Advertising

Yaoundé weather history for previous 24 hours

 ConditionsComfort  
Time TempWeatherWind HumidityBarometerVisibility
6:00 PM
Sun, Mar 29
77 °FThunderstorms. Broken clouds.No wind79%29.95 "Hg5 mi
5:00 PM77 °FThunderstorms. Broken clouds.3 mph83%29.92 "Hg5 mi
4:00 PM77 °FThunderstorms. Broken clouds.5 mph83%29.92 "Hg5 mi
3:00 PM81 °FLight rain. Broken clouds.17 mph70%29.95 "Hg3 mi
2:00 PM82 °FPartly sunny.8 mph70%29.98 "HgN/A
10:00 AM77 °FPartly sunny.7 mph79%30.09 "HgN/A
9:00 AM75 °FPartly sunny.9 mph83%30.09 "HgN/A
8:00 AM73 °FPartly sunny.5 mph83%30.07 "HgN/A
7:00 AM72 °FLow clouds.6 mph88%30.04 "HgN/A
6:00 AM70 °FPassing clouds.3 mph94%30.01 "HgN/A
5:00 AM70 °FPassing clouds.6 mph94%30.01 "HgN/A
3:00 AM72 °FPassing clouds.6 mph88%30.01 "HgN/A
2:00 AM72 °FPassing clouds.7 mph88%30.01 "HgN/A
1:00 AM72 °FPassing clouds.3 mph94%30.04 "HgN/A
12:00 AM72 °FPassing clouds.5 mph94%30.07 "HgN/A
11:00 PM
Sat, Mar 28
72 °FPassing clouds.5 mph88%30.07 "HgN/A
10:00 PM72 °FPassing clouds.3 mph88%30.07 "HgN/A
9:00 PM73 °FPassing clouds.5 mph83%30.01 "HgN/A
8:00 PM75 °FPassing clouds.3 mph78%29.98 "HgN/A
7:00 PM77 °FPassing clouds.5 mph74%29.98 "HgN/A
Weather by CustomWeather, © 2015

See weather overviewHow to use our weather pages